Terminal Aerodrome Forecast
Issued by NWS Shreveport, LA

Home | Current Version | Previous Version | Text Only | Print | Product List | Glossary On
Versions: 1 2 3 4 5 6 7 8 9 10 11 12
000
FTUS44 KSHV 141100
TAFGGG
TAF
KGGG 141122Z 1412/1512 21005KT P6SM SCT250
     FM141800 23010KT P6SM SKC
     FM150000 19008KT P6SM BKN120
     FM150600 VRB04KT P6SM VCTS SCT050 BKN100CB=

USA.gov is the U.S. government's official web portal to all federal, state and local government web resources and services.